This is the latest recevied weather packets stored in our database for station/object N0ZRD-10. If no packets are shown the sender has not sent any weather packets the latest 10 day(s).
| Time | Temp. | Humidity | Pressure | Rain* | Wind** | Luminosity | Snow |
|---|---|---|---|---|---|---|---|
| 1777531403 | 0.56° C | 70% | - | 0 mm | - | - | - |
| 1777530803 | 0.56° C | 68% | - | 0 mm | - | - | - |
| 1777530201 | 0.56° C | 68% | - | 0 mm | - | - | - |
| 1777529601 | 0.56° C | 69% | - | 0 mm | - | - | - |
| 1777529000 | 0.56° C | 68% | - | 0 mm | - | - | - |
| 1777527797 | 0.56° C | 70% | - | 0 mm | - | - | - |
| 1777527194 | 0.56° C | 69% | - | 0 mm | - | - | - |
| 1777526594 | 0.56° C | 68% | - | 0 mm | - | - | - |
| 1777525992 | 0.56° C | 68% | - | 0 mm | - | - | - |
| 1777525392 | 1.11° C | 69% | - | 0 mm | - | - | - |
| 1777524790 | 1.11° C | 67% | - | 0 mm | - | - | - |
| 1777524189 | 0.56° C | 68% | - | 0 mm | - | - | - |
| 1777523589 | 0.56° C | 69% | - | 0 mm | - | - | - |
| 1777522386 | 0.56° C | 71% | - | 0 mm | - | - | - |
| 1777521785 | 0.56° C | 72% | - | 0 mm | - | - | - |
| 1777521185 | 1.11° C | 69% | - | 0 mm | - | - | - |
| 1777520583 | 1.11° C | 69% | - | 0 mm | - | - | - |
| 1777519381 | 1.11° C | 67% | - | 0 mm | - | - | - |
| 1777518780 | 1.11° C | 64% | - | 0 mm | - | - | - |
| 1777518179 | 1.67° C | 63% | - | 0 mm | - | - | - |
| 1777517578 | 1.67° C | 62% | - | 0 mm | - | - | - |
| 1777516977 | 2.22° C | 61% | - | 0 mm | - | - | - |
| 1777516376 | 2.22° C | 60% | - | 0 mm | - | - | - |
| 1777515775 | 2.22° C | 59% | - | 0 mm | - | - | - |
| 1777515174 | 2.78° C | 57% | - | 0 mm | - | - | - |
* Rain latest hour (hover to see other rain measurements)
** Current wind speed in m/s (hover to see current wind gust speed)